Main page
METAR-TAF:

METAR-TAF

Airports :

Taos Regional Airport

Taos, New Mexico, United States

latitude: 36-27N, longitude: 105-40W, elevation: 7088 ft

Current weather observation

The report was made 40 minutes ago, at 05:56 UTC
Wind 7 mph from the North/Northeast
Temperature 16°F
Humidity 73%
Pressure 30.17 in. Hg
Visibility: 10 miles
Broken clouds at a height of 4100 ft
Overcast at a height of 7000 ft

METAR: KSKX 230556Z AUTO 03006KT 10SM BKN041 OVC070 M09/M13 A3017 RMK AO2 SLP254 T10891128 11044 21111 53009 FZRANO $

Time: 23:36 (06:36 UTC)


TAF: missing

Weather observations and forecasts of more than 4000 airports (METAR and TAF reports).

The available stations are represented by yellow and red dots on the map.

Hover mouse over dot to see the name of the station.

Then click to see weather observations and forecasts.

To change the map : click on the green buttons with a black cross to zoom in, on the green button with a dash to zoom out, or on the green arrows for adjacent maps.


METAR-TAF: